Weather History for Enid, OK

Change the Weather History Date:

Friday, March 29, 2013

  Actual Average Record
Temperature  
Mean Temperature 60 °F -  
Max Temperature 75 °F 63 °F 80 °F (2012)
Min Temperature 46 °F 43 °F 28 °F (2009)
Degree Days  
Heating Degree Days 4    
Growing Degree Days 10 (Base 50)    
Moisture  
Dew Point 52 °F    
Average Humidity 84    
Maximum Humidity 100    
Minimum Humidity 53    
Precipitation  
Precipitation 0.00 in - - ()
Sea Level Pressure  
Sea Level Pressure 30.05 in    
Wind  
Wind Speed 5 mph (SE)    
Max Wind Speed 20 mph    
Max Gust Speed -    
Visibility 8 miles    
Events Thunderstorm    
Averages and records for this station are not official NWS values.
T = Trace of Precipitation, MM = Missing Value Source: NWS Daily Summary

Daily Weather History Graph

Daily Weather History Graph

Search for Another Location

Airport:

Trip Planner

Search our weather history database for the weather conditions in past years. The results will help you decide how hot, cold, wet, or windy it might be!

Date:

Astronomy

Mar. 29, 2013 Rise Set
Actual Time 7:21 AM CDT 7:50 PM CDT
Civil Twilight 6:55 AM CDT 8:16 PM CDT
Nautical Twilight 6:24 AM CDT 8:47 PM CDT
Astronomical Twilight 5:53 AM CDT 9:18 PM CDT
Moon 10:46 PM CDT (3/29) 8:36 AM CDT (3/29)
Length of Visible Light 13h 21m
Length of Day
12h 29m
Waning Gibbous, 93% of the Moon is Illuminated
Mar 29
Waning Gibbous
Apr 2
Last Quarter
Apr 10
New
Apr 18
First Quarter
Apr 25
Full

Hourly Weather History & Observations

Time (CDT) Temp. Windchill Dew Point Humidity Pressure Visibility Wind Dir Wind Speed Gust Speed Precip Events Conditions
12:15 AM 51.8 °F - 48.2 °F 88% 30.09 in 10.0 mi Calm Calm - N/A   Clear
12:35 AM 51.8 °F - 48.2 °F 88% 30.08 in 10.0 mi SSE 3.5 mph - N/A   Clear
12:55 AM 51.8 °F - 48.2 °F 88% 30.08 in 10.0 mi Calm Calm - N/A   Clear
1:15 AM 51.8 °F - 48.2 °F 88% 30.08 in 10.0 mi South 4.6 mph - N/A   Clear
1:35 AM 50.0 °F - 48.2 °F 94% 30.08 in 10.0 mi South 4.6 mph - N/A   Clear
1:55 AM 50.0 °F - 46.4 °F 87% 30.08 in 10.0 mi South 5.8 mph - N/A   Clear
2:15 AM 50.0 °F - 48.2 °F 94% 30.07 in 10.0 mi South 4.6 mph - N/A   Scattered Clouds
2:35 AM 50.0 °F - 48.2 °F 94% 30.07 in 10.0 mi South 4.6 mph - N/A   Scattered Clouds
2:55 AM 50.0 °F - 48.2 °F 94% 30.07 in 10.0 mi South 4.6 mph - N/A   Scattered Clouds
3:15 AM 50.0 °F - 48.2 °F 94% 30.06 in 10.0 mi SSW 4.6 mph - N/A   Clear
3:35 AM 50.0 °F - 46.4 °F 87% 30.06 in 10.0 mi Calm Calm - N/A   Scattered Clouds
3:55 AM 50.0 °F - 48.2 °F 94% 30.06 in 7.0 mi Calm Calm - N/A   Scattered Clouds
4:15 AM 50.0 °F - 48.2 °F 94% 30.06 in 7.0 mi Calm Calm - N/A   Scattered Clouds
4:35 AM 48.2 °F - 46.4 °F 93% 30.06 in 4.0 mi Calm Calm - N/A   Scattered Clouds
4:55 AM 48.2 °F - 46.4 °F 93% 30.06 in 4.0 mi Calm Calm - N/A   Scattered Clouds
5:15 AM 48.2 °F - 46.4 °F 93% 30.06 in 2.5 mi Calm Calm - N/A   Scattered Clouds
5:35 AM 48.2 °F - 46.4 °F 93% 30.06 in 1.8 mi Calm Calm - N/A   Scattered Clouds
5:55 AM 46.4 °F - 46.4 °F 100% 30.06 in 0.8 mi Calm Calm - N/A   Mist
6:17 AM 46.4 °F 43.5 °F 46.4 °F 100% 30.06 in 7.0 mi SSE 5.8 mph - N/A   Partly Cloudy
6:50 AM 46.4 °F 41.9 °F 44.6 °F 93% 30.07 in 5.0 mi North 9.2 mph - N/A   Scattered Clouds
7:50 AM 46.4 °F 41.9 °F 46.4 °F 100% 30.09 in 4.0 mi NE 9.2 mph - N/A   Scattered Clouds
8:50 AM 55.4 °F - 55.4 °F 100% 30.11 in 5.0 mi NE 9.2 mph - N/A   Mostly Cloudy
9:50 AM 60.8 °F - 57.2 °F 88% 30.11 in 7.0 mi ESE 5.8 mph - N/A   Mostly Cloudy
10:50 AM 62.6 °F - 57.2 °F 82% 30.11 in 10.0 mi SSE 5.8 mph - N/A   Mostly Cloudy
11:50 AM 68.0 °F - 57.2 °F 68% 30.10 in 10.0 mi SSE 4.6 mph - N/A   Mostly Cloudy
12:50 PM 71.6 °F - 59.0 °F 64% 30.09 in 10.0 mi ESE 15.0 mph - N/A   Mostly Cloudy
1:50 PM 73.4 °F - 57.2 °F 57% 30.06 in 10.0 mi ESE 13.8 mph - N/A   Mostly Cloudy
2:50 PM 75.2 °F - 57.2 °F 53% 30.04 in 10.0 mi East 8.1 mph - N/A   Scattered Clouds
3:50 PM 75.2 °F - 57.2 °F 53% 30.03 in 7.0 mi SE 15.0 mph - N/A   Overcast
4:50 PM 75.2 °F - 57.2 °F 53% 30.01 in 7.0 mi SE 17.3 mph - N/A   Overcast
5:50 PM 73.4 °F - 57.2 °F 57% 30.00 in 7.0 mi SE 17.3 mph - N/A   Overcast
6:50 PM 71.6 °F - 57.2 °F 60% 30.00 in 7.0 mi ESE 19.6 mph - N/A   Overcast
7:50 PM 68.0 °F - 57.2 °F 68% 29.99 in 7.0 mi ESE 13.8 mph - N/A   Overcast
8:50 PM 64.4 °F - 57.2 °F 77% 30.01 in 7.0 mi SE 17.3 mph - N/A   Overcast
9:15 PM 60.8 °F - 55.4 °F 82% 30.02 in 10.0 mi ESE 10.4 mph - N/A   Scattered Clouds
9:35 PM 60.8 °F - 55.4 °F 82% 30.02 in 10.0 mi ESE 6.9 mph - N/A   Mostly Cloudy
9:55 PM 60.8 °F - 57.2 °F 88% 30.02 in 10.0 mi ESE 10.4 mph - N/A   Mostly Cloudy
10:15 PM 60.8 °F - 57.2 °F 88% 30.02 in 10.0 mi ESE 9.2 mph - N/A   Mostly Cloudy
10:35 PM 60.8 °F - 57.2 °F 88% 30.02 in 10.0 mi ESE 10.4 mph - N/A   Mostly Cloudy
10:55 PM 60.8 °F - 55.4 °F 82% 30.02 in 10.0 mi ESE 8.1 mph - N/A   Scattered Clouds
11:15 PM 59.0 °F - 55.4 °F 88% 30.00 in 10.0 mi SE 8.1 mph - N/A   Clear
11:35 PM 57.2 °F - 55.4 °F 94% 30.01 in 10.0 mi SSE 5.8 mph - N/A Thunderstorm Clear
11:55 PM 55.4 °F - 53.6 °F 94% 30.01 in 7.0 mi South 6.9 mph - N/A   Clear